Weather History for Selinsgrove, PA

Change the Weather History Date:

Thursday, August 30, 2012

  Actual Average (KIPT) Record (KIPT)
Temperature  
Mean Temperature 67 °F 69 °F  
Max Temperature 81 °F 79 °F 98 °F (1953)
Min Temperature 53 °F 59 °F 38 °F (1965)
Degree Days  
Heating Degree Days 0 1  
Month to date heating degree days 6  
Since 1 June heating degree days 47  
Since 1 July heating degree days 10  
Cooling Degree Days 2 5  
Month to date cooling degree days 197  
Year to date cooling degree days 630  
Since 1 June cooling degree days 587  
Growing Degree Days 17 (Base 50)    
Moisture  
Dew Point 56 °F    
Average Humidity 80    
Maximum Humidity 100    
Minimum Humidity 47    
Precipitation  
Precipitation 0.01 in 0.13 in 1.50 in (1985)
Month to date precipitation 3.74  
Year to date precipitation 26.91  
Sea Level Pressure  
Sea Level Pressure 30.11 in    
Wind  
Wind Speed 0 mph (South)    
Max Wind Speed 4 mph    
Max Gust Speed -    
Visibility 8 miles    
Events      
T = Trace of Precipitation, MM = Missing Value Source: NWS Daily Summary

Daily Weather History Graph

Daily Weather History Graph

Search for Another Location

Airport:

Trip Planner

Search our weather history database for the weather conditions in past years. The results will help you decide how hot, cold, wet, or windy it might be!

Date:

Astronomy

Aug. 30, 2012 Rise Set
Actual Time 6:32 AM EDT 7:42 PM EDT
Civil Twilight 6:04 AM EDT 8:10 PM EDT
Nautical Twilight 5:30 AM EDT 8:44 PM EDT
Astronomical Twilight 4:55 AM EDT 9:19 PM EDT
Moon 6:55 PM EDT (8/30) 5:31 AM EDT (8/30)
Length of Visible Light 14h 05m
Length of Day
13h 09m
Waxing Gibbous, 99% of the Moon is Illuminated
Aug 30
Waxing Gibbous
Aug 31
Full
Sep 8
Last Quarter
Sep 15
New
Sep 22
First Quarter

Hourly Weather History & Observations

Time (EDT) Temp. Heat Index Dew Point Humidity Pressure Visibility Wind Dir Wind Speed Gust Speed Precip Events Conditions
12:53 AM 57.0 °F - 55.0 °F 93% 30.07 in 10.0 mi Calm Calm - N/A   Clear
1:53 AM 55.9 °F - 54.0 °F 93% 30.07 in 8.0 mi Calm Calm - N/A   Clear
2:53 AM 55.0 °F - 53.1 °F 93% 30.07 in 8.0 mi Calm Calm - N/A   Clear
3:53 AM 54.0 °F - 52.0 °F 93% 30.07 in 7.0 mi Calm Calm - N/A   Clear
4:53 AM 54.0 °F - 52.0 °F 93% 30.09 in 7.0 mi Calm Calm - N/A   Clear
5:53 AM 53.1 °F - 51.1 °F 93% 30.09 in 6.0 mi Calm Calm - 0.01 in   Clear
6:50 AM 53.6 °F - 51.8 °F 94% 30.12 in 6.0 mi Calm Calm - N/A   Scattered Clouds
6:53 AM 53.1 °F - 52.0 °F 96% 30.12 in 6.0 mi Calm Calm - N/A   Mostly Cloudy
7:06 AM 53.6 °F - 53.6 °F 100% 30.13 in 6.0 mi Calm Calm - N/A   Scattered Clouds
7:33 AM 55.4 °F - 53.6 °F 94% 30.14 in 8.0 mi Calm Calm - N/A   Mostly Cloudy
7:53 AM 57.0 °F - 55.9 °F 96% 30.14 in 4.0 mi Calm Calm - N/A   Mostly Cloudy
8:02 AM 57.2 °F - 55.4 °F 94% 30.14 in 9.0 mi Calm Calm - N/A   Scattered Clouds
8:53 AM 60.1 °F - 57.0 °F 90% 30.15 in 6.0 mi Calm Calm - N/A   Partly Cloudy
9:53 AM 64.9 °F - 57.9 °F 78% 30.15 in 10.0 mi Calm Calm - N/A   Clear
10:53 AM 70.0 °F - 59.0 °F 68% 30.16 in 10.0 mi Calm Calm - N/A   Clear
11:53 AM 73.9 °F - 57.9 °F 57% 30.15 in 10.0 mi Calm Calm - N/A   Clear
12:53 PM 78.1 °F - 57.9 °F 50% 30.13 in 10.0 mi Calm Calm - N/A   Clear
1:53 PM 80.1 °F 80.6 °F 57.9 °F 47% 30.12 in 10.0 mi Calm Calm - N/A   Clear
2:53 PM 81.0 °F 81.3 °F 59.0 °F 47% 30.10 in 10.0 mi Calm Calm - N/A   Clear
3:53 PM 80.1 °F 80.9 °F 60.1 °F 50% 30.09 in 10.0 mi SSE 3.5 mph - N/A   Clear
4:53 PM 81.0 °F 81.7 °F 61.0 °F 50% 30.08 in 10.0 mi Calm Calm - N/A   Clear
5:53 PM 80.1 °F 81.1 °F 61.0 °F 52% 30.09 in 10.0 mi Calm Calm - N/A   Clear
6:53 PM 75.9 °F - 57.9 °F 54% 30.08 in 10.0 mi South 3.5 mph - N/A   Clear
7:53 PM 66.0 °F - 63.0 °F 90% 30.08 in 10.0 mi Calm Calm - N/A   Clear
8:53 PM 62.1 °F - 60.1 °F 93% 30.10 in 10.0 mi Calm Calm - N/A   Clear
9:53 PM 61.0 °F - 59.0 °F 93% 30.10 in 9.0 mi Calm Calm - N/A   Clear
10:53 PM 60.1 °F - 57.9 °F 93% 30.10 in 7.0 mi Calm Calm - N/A   Clear
11:53 PM 57.9 °F - 55.9 °F 93% 30.09 in 6.0 mi Calm Calm - N/A   Clear